Location: Cahas Mountain Overlook
(37.0833°N, 80.1000°W)
Time: 19:11:18
(UTC-04:00)

SR - Pass Details

Date: 12 February 2026
Orbit: 572 x 849 km, 66.7° (Epoch: 13 March)

Event Time Altitude Azimuth Distance (km) Brightness Sun altitude
Rises 16:53:45 0° 305° (NW) 3,164 ? 11.0°
Reaches altitude 10° 16:58:08 10° 270° (W) 2,311 ? 10.2°
Maximum altitude 16:59:25 11° 256° (WSW) 2,270 ? 10.0°
Drops below altitude 10° 17:00:42 10° 242° (WSW) 2,347 ? 9.7°
Sets 17:05:19 0° 207° (SSW) 3,331 ? 8.9°
